Volver al catálogo

STARLINK-3707

ActivoComunicacionesVLEO
NORAD 52133·PAYLOAD·🇺🇸 United States

Lanzado Mar 19, 2022 desde Cape Canaveral Space Force Station

Loading…

Próximos Pases (próximas 24 horas)

TLE

ActualizadoSource: CelesTrak SupGP

Época: Sep 14, 2026, 21:02 UTC

1 52133C 22029AX  26257.87687500  .00012019  00000+0  35521-3 0  2570
2 52133  53.1577 293.7044 0001110  91.9371   0.6223 15.34375505    18

Sigue STARLINK-3707 en tiempo real con AllMySat

Download on the App Store